Location: Newark
(33.2404°N, 35.6778°E)
Time: 12:06:39
(UTC+00:00)

Envisat - Visible Passes

Search period start: 25 January 2020 00:00
Search period end: 04 February 2020 00:00
Orbit: 764 x 766 km, 98.1° (Epoch: 25 January)

Date Brightness Start Highest point End Pass type
(mag) Time Alt. Az. Time Alt. Az. Time Alt. Az.
25 Jan 6.3 02:59:29 10° ENE 03:01:41 13° E 03:03:53 10° ESE visible
25 Jan 3.4 15:46:05 10° S 15:51:06 68° WSW 15:56:11 10° NNW visible
26 Jan 3.8 03:59:16 10° NNE 04:04:16 59° E 04:09:16 10° S visible
26 Jan 6.1 16:50:51 10° SW 16:53:39 15° W 16:56:27 10° WNW visible
27 Jan 5.5 03:23:17 10° NE 03:27:22 24° E 03:31:27 10° SSE visible
27 Jan 4.7 16:12:01 10° SSW 16:16:39 36° W 16:21:18 10° NNW visible
28 Jan 3.1 15:34:45 10° SSE 15:39:49 88° WSW 15:44:55 10° NNW visible
29 Jan 4.3 03:48:06 10° NNE 03:52:58 45° E 03:57:47 10° S visible
29 Jan 5.8 16:38:41 10° SW 16:42:16 19° W 16:45:53 10° NW visible
30 Jan 5.9 03:12:29 10° NE 03:16:00 19° E 03:19:30 10° SE visible
30 Jan 4.2 16:00:28 10° S 16:05:19 47° W 16:10:13 10° NNW visible
31 Jan 3.0 15:23:31 10° SSE 15:28:33 72° ENE 15:33:37 10° N visible
01 Feb 4.9 03:37:01 10° NNE 03:41:38 34° E 03:46:13 10° SSE visible
01 Feb 5.4 16:26:47 10° SSW 16:30:54 25° W 16:35:03 10° NW visible
02 Feb 6.2 03:01:58 10° ENE 03:04:38 14° E 03:07:17 10° SE visible
02 Feb 3.6 15:49:00 10° S 15:54:00 61° W 15:59:02 10° NNW visible
03 Feb 3.6 04:02:07 10° NNE 04:07:11 65° E 04:12:12 10° S visible
03 Feb 6.3 16:54:12 10° WSW 16:56:35 13° W 16:58:58 10° WNW visible
